This demonstration page uses our WeatherBlox Daily Observations layout. Learn more.

Left ArrowRight Arrow

Hourly Observations for September 27, 2020

Temp ( °F °C ) Dew Point ( °F °C ) Humidity (%) Winds ( mph kmh ) Pressure ( in mb ) Visibility ( mi km ) Precip ( " mm )
12:15 am 00:15 Cloudy 59 15 59 15 100 100 Calm 30.02 1017 10 16 0.00 0.00
12:35 am 00:35 Cloudy 59 15 59 15 100 100 N 3 6 30.02 1017 10 16 0.00 0.00
12:55 am 00:55 Cloudy 59 15 59 15 100 100 NNE 3 6 30.01 1016 7 11 0.00 0.00
1:15 am 01:15 Cloudy 59 15 59 15 100 100 Calm 30.00 1016 7 11 0.00 0.00
1:35 am 01:35 Cloudy 59 15 59 15 100 100 Calm 30.00 1016 5 8 0.00 0.00
1:55 am 01:55 Cloudy 59 15 59 15 100 100 Calm 30.00 1016 5 8 0.00 0.00
2:15 am 02:15 Cloudy 59 15 59 15 100 100 Calm 30.00 1016 5 8 0.00 0.00
2:35 am 02:35 Cloudy 59 15 59 15 100 100 NNW 3 6 30.00 1016 5 8 0.00 0.00
2:55 am 02:55 Cloudy 57 14 57 14 100 100 NNW 3 6 30.00 1016 5 8 0.00 0.00
3:15 am 03:15 Cloudy 57 14 57 14 100 100 NW 3 6 30.00 1016 5 8 0.00 0.00
3:35 am 03:35 Cloudy 57 14 57 14 100 100 N 5 7 30.00 1016 5 8 0.00 0.00
3:55 am 03:55 Cloudy 59 15 59 15 100 100 Calm 29.99 1016 5 8 0.00 0.00
4:15 am 04:15 Cloudy 59 15 59 15 100 100 Calm 29.99 1016 5 8 0.00 0.00
4:35 am 04:35 Cloudy 57 14 57 14 100 100 Calm 29.98 1015 4 6 0.00 0.00
4:55 am 04:55 Cloudy 57 14 57 14 100 100 Calm 29.99 1016 5 8 0.00 0.00
5:15 am 05:15 Cloudy 57 14 57 14 100 100 Calm 29.99 1016 4 6 0.00 0.00
5:35 am 05:35 Cloudy 57 14 57 14 100 100 Calm 30.00 1016 5 8 0.00 0.00
5:55 am 05:55 Cloudy 57 14 57 14 100 100 N 5 7 29.98 1015 4 6 0.00 0.00
6:15 am 06:15 Cloudy 57 14 57 14 100 100 Calm 30.00 1016 4 6 0.00 0.00
6:35 am 06:35 Cloudy 55 13 55 13 100 100 Calm 30.00 1016 5 8 0.00 0.00
6:55 am 06:55 Cloudy 55 13 55 13 100 100 Calm 30.01 1016 4 6 0.00 0.00
7:15 am 07:15 Cloudy 55 13 55 13 100 100 Calm 30.01 1016 4 6 0.00 0.00
7:35 am 07:35 Cloudy 55 13 55 13 100 100 Calm 30.02 1017 4 6 0.00 0.00
7:55 am 07:55 Cloudy 55 13 55 13 100 100 Calm 30.02 1017 4 6 0.00 0.00
8:15 am 08:15 Cloudy 55 13 55 13 100 100 Calm 30.02 1017 4 6 0.00 0.00
8:35 am 08:35 Mostly Cloudy 57 14 57 14 100 100 Calm 30.02 1017 5 8 0.00 0.00
8:55 am 08:55 Partly Cloudy 59 15 57 14 94 94 Calm 30.02 1017 7 11 0.00 0.00
9:15 am 09:15 Partly Cloudy 59 15 59 15 100 100 NNE 3 6 30.02 1017 7 11 0.00 0.00
9:35 am 09:35 Mostly Cloudy 61 16 59 15 94 94 Calm 30.02 1016 7 11 0.00 0.00
9:55 am 09:55 Partly Cloudy 63 17 59 15 88 88 Calm 30.02 1016 10 16 0.00 0.00
11:15 am 11:15 Cloudy 68 20 61 16 78 78 Calm 30.01 1016 10 16 0.00 0.00
11:35 am 11:35 Cloudy 68 20 61 16 78 78 Calm 30.00 1016 10 16 0.00 0.00
11:55 am 11:55 Cloudy 70 21 63 17 78 78 Calm 29.99 1016 10 16 0.00 0.00
12:15 pm 12:15 Cloudy 70 21 63 17 78 78 Calm 29.99 1016 10 16 0.00 0.00
12:35 pm 12:35 Cloudy 70 21 63 17 78 78 Calm 29.99 1016 10 16 0.00 0.00
12:55 pm 12:55 Cloudy 70 21 63 17 78 78 Calm 29.98 1015 10 16 0.00 0.00
1:15 pm 13:15 Cloudy 70 21 63 17 78 78 ENE 3 6 29.97 1015 10 16 0.00 0.00
1:35 pm 13:35 Cloudy 72 22 63 17 73 73 S 5 7 29.96 1015 10 16 0.00 0.00
1:55 pm 13:55 Cloudy 72 22 63 17 73 73 SSW 5 7 29.95 1014 10 16 0.00 0.00
2:15 pm 14:15 Cloudy 73 23 63 17 69 69 S 7 11 29.93 1013 10 16 0.00 0.00
2:35 pm 14:35 Cloudy 73 23 63 17 69 69 Calm 29.93 1013 10 16 0.00 0.00
2:55 pm 14:55 Cloudy 73 23 63 17 69 69 S 5 7 29.92 1013 10 16 0.00 0.00
3:15 pm 15:15 Cloudy 73 23 63 17 69 69 SSW 6 9 29.92 1013 10 16 0.00 0.00
3:35 pm 15:35 Cloudy 73 23 64 18 74 74 SSW 6 9 29.92 1013 10 16 0.00 0.00
3:55 pm 15:55 Cloudy 75 24 64 18 69 69 SSW 7 11 29.91 1013 10 16 0.00 0.00
4:15 pm 16:15 Cloudy 73 23 64 18 74 74 SW 5 7 29.91 1013 10 16 0.00 0.00
4:35 pm 16:35 Cloudy 73 23 64 18 74 74 SW 6 9 29.91 1013 10 16 0.00 0.00
4:55 pm 16:55 Cloudy 73 23 64 18 74 74 SW 5 7 29.91 1013 10 16 0.00 0.00
5:15 pm 17:15 Cloudy 73 23 64 18 74 74 SSW 3 6 29.90 1012 10 16 0.00 0.00
5:35 pm 17:35 Cloudy 72 22 64 18 78 78 Calm 29.91 1013 10 16 0.00 0.00
5:55 pm 17:55 Cloudy 72 22 64 18 78 78 SSW 3 6 29.90 1012 10 16 0.00 0.00
6:15 pm 18:15 Partly Cloudy 72 22 64 18 78 78 Calm 29.90 1012 10 16 0.00 0.00
6:35 pm 18:35 Partly Cloudy 72 22 64 18 78 78 S 3 6 29.90 1012 10 16 0.00 0.00
6:55 pm 18:55 Sunny 70 21 64 18 83 83 S 5 7 29.89 1012 10 16 0.00 0.00
7:15 pm 19:15 Clear 68 20 64 18 88 88 SSW 3 6 29.89 1012 10 16 0.00 0.00
7:35 pm 19:35 Clear 68 20 64 18 88 88 SW 3 6 29.90 1013 10 16 0.00 0.00
7:55 pm 19:55 Clear 68 20 64 18 88 88 SSW 3 6 29.91 1013 10 16 0.00 0.00
8:15 pm 20:15 Partly Cloudy 66 19 64 18 94 94 SSW 5 7 29.91 1013 10 16 0.00 0.00
8:35 pm 20:35 Clear 66 19 64 18 94 94 S 3 6 29.91 1013 10 16 0.00 0.00
8:55 pm 20:55 Partly Cloudy 64 18 63 17 94 94 WSW 3 6 29.92 1013 10 16 0.00 0.00
9:15 pm 21:15 Partly Cloudy 64 18 64 18 100 100 S 5 7 29.92 1013 10 16 0.00 0.00
9:35 pm 21:35 Clear 64 18 63 17 94 94 S 5 7 29.92 1013 10 16 0.00 0.00
9:55 pm 21:55 Clear 63 17 63 17 100 100 S 3 6 29.93 1013 10 16 0.00 0.00
10:15 pm 22:15 Clear 63 17 63 17 100 100 S 5 7 29.93 1013 10 16 0.00 0.00
10:35 pm 22:35 Clear 64 18 63 17 94 94 S 7 11 29.92 1013 10 16 0.00 0.00
10:55 pm 22:55 Clear 63 17 63 17 100 100 S 6 9 29.93 1013 10 16 0.00 0.00
11:15 pm 23:15 Clear 63 17 63 17 100 100 S 7 11 29.93 1013 10 16 0.00 0.00
11:35 pm 23:35 Clear 63 17 63 17 100 100 S 5 7 29.92 1013 10 16 0.00 0.00
11:55 pm 23:55 Clear 61 16 61 16 100 100 S 3 6 29.92 1013 10 16 0.00 0.00

Powered by AerisWeather